Theta_e
307 305 307 307 310 307 306 307 307 307 308 310 312 312 312 311 313 310 309 312 308 309 312 312 310 307 308 306 305 305 307 307 305 308 309 306 310 309 312 312 315 314 315
302 303 303 303 305 304 305 307 308 308 310 310 312 310 311 311 311 310 312 313 309 310 311 313 308 310 306 307 307 308 307 309 309 308 310 307 310 314 315 316 317 320 319
307 306 303 303 303 303 304 306 307 308 310 311 311 310 311 313 314 314 313 312 309 311 309 310 309 305 306 307 309 310 310 311 308 308 307 308 309 315 315 318 319 321 323
305 303 301 302 303 303 304 305 306 308 310 309 309 309 312 314 314 314 313 310 307 309 312 310 307 305 306 306 308 309 310 309 309 309 304 303 307 315 314 314 312 313 315
301 300 300 302 306 304 304 304 306 308 312 313 312 308 310 310 313 312 313 307 307 307 309 312 309 309 315 314 311 306 309 309 309 309 304 305 309 311 311 313 311 311 310
299 300 301 301 302 302 303 303 304 306 310 312 312 312 311 311 310 310 310 306 309 309 311 310 310 312 309 314 314 313 312 310 309 306 308 309 309 311 312 311 310 310 306
299 300 300 300 301 302 302 303 303 303 304 308 310 312 310 310 307 306 309 307 306 305 309 312 308 311 310 311 312 313 313 312 313 311 309 307 308 307 309 305 304 300 300
298 299 300 300 300 301 301 300 300 303 303 305 309 310 310 310 307 304 305 307 305 305 308 309 305 303 304 310 313 312 309 309 311 313 312 310 312 309 307 305 302 303 301
297 298 299 300 300 300 299 298 299 300 301 306 310 311 310 309 306 303 305 308 305 303 306 309 308 306 302 302 312 308 304 307 309 308 306 306 306 306 307 305 302 303 300
297 298 300 299 301 298 297 296 302 301 304 307 311 311 310 307 304 300 303 306 306 302 305 307 307 308 300 302 313 307 302 304 304 303 303 305 306 306 307 305 303 301 301
299 299 299 299 296 297 295 295 299 305 308 303 307 310 309 308 307 300 299 300 301 302 303 307 306 302 300 299 304 304 302 303 303 306 307 304 305 305 307 307 306 305 303
299 298 298 297 296 297 294 296 297 302 304 304 306 307 309 312 306 298 298 300 302 306 306 307 306 298 298 297 298 297 298 301 300 300 301 302 303 303 302 305 306 306 304
297 296 296 297 295 295 294 296 296 298 302 303 302 304 306 311 310 301 297 299 302 305 307 302 300 297 296 298 297 297 298 299 300 299 299 299 301 305 303 303 306 306 306
296 295 295 295 296 293 295 301 301 300 302 301 299 301 303 308 308 304 301 298 300 302 304 301 300 300 298 298 297 297 298 298 297 297 298 298 302 303 303 303 304 305 304
298 296 293 295 297 293 295 300 301 302 299 301 298 298 300 301 301 298 297 299 300 301 301 300 299 298 297 297 297 298 296 295 296 296 297 298 304 304 304 304 303 303 302
296 298 292 293 296 297 294 298 297 296 296 295 293 295 301 298 294 295 294 295 296 296 300 299 297 297 297 297 297 297 298 299 297 297 298 298 299 305 304 304 305 305 304
296 295 292 294 296 296 295 297 297 299 299 298 294 293 292 294 293 294 294 294 295 296 300 299 299 298 300 304 304 303 301 301 300 299 300 300 300 300 301 305 304 303 306
296 296 292 295 296 296 292 292 296 297 297 296 298 294 293 293 293 294 294 297 302 299 299 300 301 307 308 307 307 307 305 304 304 301 300 301 301 301 300 300 302 306 303
295 294 294 295 294 293 291 291 291 292 294 296 294 295 295 293 294 293 294 301 301 301 302 301 301 302 306 303 307 306 306 305 304 302 302 301 301 300 300 300 300 296 298
296 296 294 292 291 292 290 290 291 291 291 292 292 294 294 295 298 301 303 304 303 302 302 303 304 305 305 305 305 306 306 306 305 302 302 301 301 300 300 299 298 298 298
295 295 294 293 292 292 291 290 291 291 291 291 292 293 288 293 295 300 301 304 305 304 304 305 305 306 305 304 304 305 306 307 305 305 303 305 305 303 302 299 299 298 298
296 295 295 294 293 292 292 292 291 291 291 292 292 293 287 293 294 296 300 302 303 304 305 307 307 308 311 308 307 307 304 304 304 305 305 303 301 301 300 299 299 299 299
296 296 295 294 293 292 292 292 291 291 291 292 292 292 293 293 293 294 296 301 302 302 303 304 307 308 308 309 309 306 305 303 304 304 305 306 304 304 302 300 300 299 299
298 297 295 294 293 292 292 292 292 290 291 292 292 293 292 293 293 294 295 297 300 301 301 302 302 303 307 308 307 305 304 304 304 303 303 304 305 303 307 305 301 301 301
300 300 295 294 293 293 293 293 293 293 293 293 292 292 293 293 293 294 295 295 296 296 299 301 303 303 306 309 308 305 293 289 297 291 301 303 305 308 308 305 305 307 306
299 300 298 294 293 294 295 295 295 295 294 295 294 294 294 293 293 294 294 294 294 295 297 297 299 301 304 307 306 295 288 287 289 286 295 299 302 303 304 305 307 307 307
Wind_Speed
4 5 6 7 7 6 6 7 8 7 8 8 9 7 7 6 6 6 5 5 6 6 4 6 5 4 3 2 2 3 4 5 6 3 3 2 4 4 0 3 3 3 3
5 5 7 7 6 7 7 8 9 9 8 9 8 6 5 5 5 5 5 5 6 5 6 5 4 3 3 3 3 5 4 5 5 6 1 3 2 2 3 6 3 2 2
5 6 7 7 7 7 7 8 8 8 9 6 5 5 5 5 3 1 5 6 7 5 5 5 4 1 3 2 4 3 3 2 3 3 2 1 2 2 5 4 5 6 5
6 6 7 7 7 6 7 7 8 7 8 6 4 5 5 5 4 2 7 6 5 5 4 4 3 1 2 3 2 3 2 2 3 2 3 1 1 3 2 5 6 6 6
5 5 7 7 6 7 7 8 7 6 5 4 5 5 4 5 5 5 4 6 5 4 3 2 2 3 2 2 1 1 3 3 3 2 4 2 2 3 4 4 7 6 7
5 6 6 7 7 7 7 8 7 7 5 4 5 6 5 4 8 7 6 6 6 6 4 2 3 3 4 2 6 6 4 3 6 3 2 4 4 6 5 5 6 6 4
5 6 7 7 7 7 8 7 7 6 5 5 5 4 4 6 6 8 8 5 5 4 3 4 4 1 2 2 6 4 5 5 4 1 5 2 5 3 5 4 4 4 3
6 6 7 7 7 7 7 7 7 5 5 5 4 4 3 4 8 7 8 6 4 5 4 5 2 1 3 4 2 4 6 5 3 0 3 5 6 6 5 4 5 5 5
6 7 7 7 7 7 7 8 7 6 5 4 4 5 3 4 7 8 10 6 5 4 3 4 4 2 2 3 4 4 4 6 8 9 7 5 5 8 7 5 3 5 3
6 7 6 6 6 6 7 8 5 4 4 4 6 4 4 5 3 8 6 4 4 2 3 2 3 4 3 2 5 5 5 3 3 5 4 6 6 5 7 4 5 4 3
6 6 6 6 6 6 7 4 6 6 5 4 5 5 5 2 4 8 9 5 4 3 3 1 2 6 6 4 5 5 3 5 5 5 4 4 4 4 3 3 5 4 3
6 6 6 6 5 5 6 6 6 5 5 5 4 4 5 3 4 5 9 7 6 3 4 2 2 8 8 7 5 6 8 6 4 4 3 2 2 1 2 2 3 2 2
6 6 6 6 6 6 6 6 5 5 3 4 4 3 4 2 1 5 7 7 7 3 3 1 3 8 8 5 7 7 6 4 3 2 2 1 2 3 2 1 2 3 4
6 7 6 5 6 6 5 4 3 3 3 4 4 5 5 4 3 3 1 4 4 2 4 4 5 6 6 6 4 3 2 3 2 0 0 1 0 1 2 2 1 1 2
5 5 6 4 4 5 5 4 4 2 2 3 3 3 5 5 4 3 1 4 4 5 5 3 2 2 3 2 0 1 2 2 1 1 1 1 1 3 2 2 2 1 2
5 3 4 4 4 3 4 5 3 4 6 4 5 3 2 6 8 4 4 6 7 10 3 2 2 3 4 3 3 3 2 4 3 3 2 1 1 2 4 2 2 3 3
5 4 4 4 4 3 3 4 4 6 9 12 7 4 3 7 7 5 2 6 6 3 2 2 3 3 3 4 4 4 4 4 4 4 4 4 2 1 2 2 3 3 3
5 5 4 4 3 4 3 3 3 2 4 5 4 5 7 6 7 3 3 3 2 2 1 3 4 4 3 3 3 4 4 4 5 5 5 5 4 3 2 3 2 3 4
4 4 4 4 2 4 2 3 3 3 3 3 4 6 7 10 4 3 2 1 2 1 2 3 3 3 3 4 2 2 4 4 4 3 4 5 5 4 5 5 5 5 3
5 9 6 3 3 3 2 3 4 2 3 3 3 3 5 5 3 3 1 2 2 3 3 4 3 3 3 4 3 2 2 3 2 3 4 4 4 4 5 4 5 4 5
4 5 5 3 4 4 3 4 4 3 4 3 3 3 4 1 3 3 3 3 1 1 2 3 3 3 3 3 3 2 3 3 4 5 4 4 4 4 4 4 4 5 4
5 5 4 4 4 4 4 4 4 4 4 4 4 3 4 3 3 3 2 2 2 2 2 2 3 3 3 4 4 4 4 4 2 2 2 3 4 4 3 4 5 5 4
5 5 5 4 5 5 5 5 5 5 5 5 5 4 4 4 4 4 4 3 3 2 2 3 3 2 2 3 3 4 4 4 2 1 2 3 3 4 5 5 5 5 5
6 6 6 5 5 5 5 5 5 6 6 5 5 5 5 5 5 5 5 4 3 3 3 3 3 4 3 4 4 3 2 1 1 1 2 2 1 1 1 2 4 5 4
8 8 6 7 6 6 6 6 6 6 6 5 6 5 6 5 5 6 5 5 5 4 5 4 4 5 7 8 6 7 5 4 2 1 0 2 4 2 2 2 1 2 1
8 9 8 6 6 7 7 7 7 6 6 6 6 6 7 7 6 6 5 5 5 5 6 5 6 9 9 7 7 8 7 6 5 4 2 3 4 3 2 4 5 3 5
Wind_Direction
279 293 281 296 294 296 284 284 280 275 275 269 252 230 221 229 230 228 238 241 234 255 259 250 267 263 273 223 216 208 219 211 242 272 255 315 310 322 91 148 169 179 195
280 286 280 290 298 295 293 285 287 290 285 268 250 214 236 234 244 250 249 232 230 241 256 267 263 281 311 228 229 233 227 225 239 261 290 344 310 31 107 113 83 75 179
314 322 314 300 298 292 294 296 295 290 292 284 237 212 222 213 195 232 271 241 222 227 252 257 252 353 315 266 242 255 233 222 210 215 170 303 317 21 79 82 101 84 86
341 332 319 301 285 294 298 299 296 298 295 286 263 230 203 203 203 156 266 248 222 221 232 248 245 217 261 256 277 249 242 251 229 200 157 117 21 79 73 102 80 53 69
329 325 317 308 301 301 309 305 300 306 310 316 300 283 245 231 216 202 266 248 195 231 234 271 256 262 274 287 159 357 334 327 286 177 108 108 128 112 104 98 95 85 55
337 324 311 316 320 313 302 298 309 301 305 310 307 276 247 231 213 239 211 199 202 196 216 249 12 297 59 328 134 170 254 8 18 62 93 128 117 113 112 115 113 102 85
325 317 308 308 308 304 300 300 313 301 283 285 277 302 279 245 209 232 218 212 207 181 188 299 296 201 120 58 98 64 356 174 217 116 105 103 132 151 139 91 59 79 114
324 311 304 309 306 301 307 316 314 301 293 278 278 274 271 240 250 232 210 177 182 207 161 209 197 287 72 87 43 63 4 28 339 61 86 112 110 105 96 129 137 106 68
324 306 305 308 307 317 323 315 306 304 312 290 284 283 313 264 217 196 163 152 165 207 222 196 194 187 320 128 228 100 79 25 34 69 59 58 106 115 127 101 81 82 67
302 296 301 308 311 314 316 310 294 299 308 320 316 279 283 257 240 161 165 132 151 197 258 242 200 190 248 3 197 139 110 77 82 58 18 37 56 154 156 128 147 121 127
284 296 306 314 320 315 315 301 304 321 322 324 310 311 306 237 233 161 164 154 170 182 208 264 301 180 166 89 151 144 152 138 93 94 84 50 39 86 139 166 177 141 143
300 311 314 316 320 322 326 311 323 333 331 335 346 341 343 289 20 151 164 168 167 170 189 162 178 187 147 133 107 116 112 94 82 83 92 99 91 115 184 148 169 198 225
307 311 306 312 320 325 328 318 327 329 342 339 348 346 327 297 154 107 161 184 178 152 137 145 229 177 155 118 116 120 96 86 96 95 107 102 198 206 139 125 68 60 57
303 308 314 320 316 329 327 310 307 339 334 9 355 343 344 348 79 19 131 194 242 164 128 54 75 109 120 122 112 103 102 120 131 150 167 181 229 146 151 134 114 56 76
288 302 327 314 319 323 324 322 338 25 340 336 335 333 350 346 4 301 263 181 195 178 115 84 80 106 119 131 216 216 168 162 179 233 266 323 143 152 174 157 124 134 160
295 308 320 319 316 321 341 331 272 318 319 323 258 263 322 281 337 16 69 118 171 143 87 141 167 150 154 170 211 247 223 204 203 194 252 199 259 176 156 156 157 181 195
268 293 304 294 309 339 340 347 357 345 340 297 309 265 270 284 330 15 349 111 80 121 134 171 189 173 190 205 210 202 227 212 188 195 196 221 224 307 52 197 188 169 229
267 279 266 283 297 318 339 339 325 345 327 335 353 357 331 351 4 35 221 100 53 49 138 200 203 201 210 225 248 239 219 239 206 183 187 192 193 188 196 242 250 232 202
252 268 274 286 316 287 287 312 306 319 338 338 342 348 352 351 339 254 160 139 162 212 215 218 244 247 206 231 265 283 210 193 212 207 200 187 176 167 211 219 224 222 225
242 250 258 274 301 271 276 286 294 289 316 335 334 305 325 4 20 2 48 196 199 215 242 252 249 224 199 197 243 266 244 304 90 220 213 193 204 196 224 217 198 199 211
231 253 249 282 253 250 237 254 266 292 287 281 270 263 256 287 328 349 2 16 47 210 229 205 204 197 166 157 185 250 302 275 211 215 162 216 183 197 190 208 216 208 219
217 238 246 247 249 255 240 236 248 251 260 270 277 279 249 234 274 290 287 312 324 340 332 293 199 199 188 178 189 196 214 227 226 155 214 229 201 198 192 204 212 199 200
219 229 237 243 239 247 257 243 240 244 249 250 254 267 273 255 244 248 262 257 244 253 269 275 254 206 161 191 194 203 198 204 212 211 164 177 216 187 187 215 202 203 197
218 221 224 227 220 224 236 249 243 238 248 253 249 248 242 242 247 250 246 250 253 252 253 256 262 272 249 191 171 165 151 170 178 173 60 325 276 22 170 185 195 205 169
219 223 219 225 221 222 223 235 236 237 236 232 241 236 245 239 234 234 234 231 233 233 243 243 242 238 234 214 198 168 164 181 225 267 117 292 294 310 275 266 264 276 228
209 214 222 218 226 229 229 235 237 231 230 237 231 230 231 227 229 232 225 219 225 229 232 233 237 243 233 216 199 157 166 180 195 217 217 218 236 253 254 252 255 236 246